This is the latest recevied weather packets stored in our database for station/object S51UL-6. If no packets are shown the sender has not sent any weather packets the latest 10 day(s).
| Time | Temp. | Humidity | Pressure | Rain* | Wind** | Luminosity | Snow |
|---|---|---|---|---|---|---|---|
| 1788097327 | 33.33° C | 42% | 1016.5 hPa | 0 mm | - | - | - |
| 1788097027 | 33.33° C | 43% | 1016.6 hPa | 0 mm | - | - | - |
| 1788096128 | 33.33° C | 43% | 1016.6 hPa | 0 mm | - | - | - |
| 1788095527 | 32.78° C | 42% | 1016.9 hPa | 0 mm | - | - | - |
| 1788095228 | 32.78° C | 41% | 1016.9 hPa | 0 mm | - | - | - |
| 1788094927 | 33.33° C | 42% | 1016.8 hPa | 0 mm | - | - | - |
| 1788094630 | 32.78° C | 43% | 1016.9 hPa | 0 mm | - | - | - |
| 1788094327 | 32.78° C | 42% | 1016.8 hPa | 0 mm | - | - | - |
| 1788094028 | 32.78° C | 40% | 1016.9 hPa | 0 mm | - | - | - |
| 1788093727 | 33.33° C | 41% | 1017 hPa | 0 mm | - | - | - |
| 1788093427 | 33.33° C | 41% | 1017.1 hPa | 0 mm | - | - | - |
| 1788093127 | 33.33° C | 42% | 1017.2 hPa | 0 mm | - | - | - |
| 1788092828 | 33.33° C | 41% | 1017.3 hPa | 0 mm | - | - | - |
| 1788092528 | 33.89° C | 40% | 1017.1 hPa | 0 mm | - | - | - |
| 1788091929 | 33.89° C | 41% | 1017.1 hPa | 0 mm | - | - | - |
| 1788091629 | 34.44° C | 40% | 1017.5 hPa | 0 mm | - | - | - |
| 1788091329 | 35° C | 41% | 1017.4 hPa | 0 mm | - | - | - |
| 1788091028 | 34.44° C | 42% | 1017.5 hPa | 0 mm | - | - | - |
| 1788090728 | 34.44° C | 40% | 1017.4 hPa | 0 mm | - | - | - |
| 1788090429 | 35° C | 40% | 1017.5 hPa | 0 mm | - | - | - |
| 1788089828 | 35° C | 40% | 1017.5 hPa | 0.51 mm | - | - | - |
| 1788089528 | 35° C | 39% | 1017.5 hPa | 0.51 mm | - | - | - |
| 1788088928 | 36.11° C | 39% | 1017.8 hPa | 0.51 mm | - | - | - |
| 1788088628 | 36.11° C | 41% | 1017.8 hPa | 0.51 mm | - | - | - |
| 1788088328 | 36.11° C | 41% | 1017.8 hPa | 0.51 mm | - | - | - |
* Rain latest hour (hover to see other rain measurements)
** Current wind speed in m/s (hover to see current wind gust speed)